This is the latest recevied weather packets stored in our database for station/object KB1FPD. If no packets are shown the sender has not sent any weather packets the latest 10 day(s).
| Time | Temp. | Humidity | Pressure | Rain* | Wind** | Luminosity | Snow |
|---|---|---|---|---|---|---|---|
| 1777583772 | 13.33° C | 64% | 1010.3 hPa | 0 mm | - | - | - |
| 1777583468 | 13.33° C | 66% | 1010 hPa | 0 mm | - | - | - |
| 1777583172 | 13.33° C | 65% | 1009.9 hPa | 0 mm | - | - | - |
| 1777582867 | 13.33° C | 68% | 1009.9 hPa | 0 mm | - | - | - |
| 1777582574 | 13.33° C | 66% | 1009.9 hPa | 0 mm | - | - | - |
| 1777582269 | 13.33° C | 65% | 1009.9 hPa | 0 mm | - | - | - |
| 1777581976 | 13.33° C | 67% | 1009.9 hPa | 0 mm | - | - | - |
| 1777581665 | 13.33° C | 66% | 1009.8 hPa | 0 mm | - | - | - |
| 1777581367 | 13.89° C | 66% | 1009.6 hPa | 0 mm | - | - | - |
| 1777581061 | 14.44° C | 62% | 1009.5 hPa | 0 mm | - | - | - |
| 1777580762 | 15° C | 63% | 1009.5 hPa | 0 mm | - | - | - |
| 1777580470 | 15.56° C | 61% | 1009.3 hPa | 0 mm | - | - | - |
| 1777580167 | 15.56° C | 64% | 1009.3 hPa | 0 mm | - | - | - |
| 1777579864 | 15.56° C | 64% | 1009.4 hPa | 0 mm | - | - | - |
| 1777579565 | 15.56° C | 60% | 1009.2 hPa | 0 mm | - | - | - |
| 1777579259 | 15.56° C | 60% | 1009.2 hPa | 0 mm | - | - | - |
| 1777578958 | 15.56° C | 65% | 1009.3 hPa | 0 mm | - | - | - |
| 1777578661 | 15.56° C | 64% | 1009.2 hPa | 0 mm | - | - | - |
| 1777578355 | 15° C | 63% | 1009.3 hPa | 0 mm | - | - | - |
| 1777578055 | 15° C | 62% | 1009.1 hPa | 0 mm | - | - | - |
| 1777577756 | 15.56° C | 59% | 1009.1 hPa | 0 mm | - | - | - |
| 1777577455 | 16.11° C | 58% | 1009 hPa | 0 mm | - | - | - |
| 1777577153 | 16.67° C | 57% | 1008.9 hPa | 0 mm | - | - | - |
| 1777576854 | 16.67° C | 58% | 1008.7 hPa | 0 mm | - | - | - |
| 1777576549 | 17.22° C | 65% | 1008.8 hPa | 0 mm | - | - | - |
* Rain latest hour (hover to see other rain measurements)
** Current wind speed in m/s (hover to see current wind gust speed)